Weather History for Panama City, FL

Change the Weather History Date:

Saturday, April 13, 2013

  Actual Average Record
Temperature  
Mean Temperature 66 °F -  
Max Temperature 82 °F - 82 °F (2012)
Min Temperature 50 °F - 46 °F (2012)
Degree Days  
Heating Degree Days 0    
Cooling Degree Days 1    
Growing Degree Days 16 (Base 50)    
Moisture  
Dew Point 50 °F    
Average Humidity 59    
Maximum Humidity 89    
Minimum Humidity 28    
Precipitation  
Precipitation 0.00 in - 0.00 in (2014)
Month to date precipitation  
Year to date precipitation  
Sea Level Pressure  
Sea Level Pressure 30.01 in    
Wind  
Wind Speed 4 mph (North)    
Max Wind Speed 14 mph    
Max Gust Speed 20 mph    
Visibility 10 miles    
Events      
T = Trace of Precipitation, MM = Missing Value Source: NWS Daily Summary

Daily Weather History Graph

Daily Weather History Graph

Search for Another Location

Airport:

Trip Planner

Search our weather history database for the weather conditions in past years. The results will help you decide how hot, cold, wet, or windy it might be!

Date:

Astronomy

Apr. 13, 2013 Rise Set
Actual Time 7:17 AM EDT 8:09 PM EDT
Civil Twilight 6:53 AM EDT 8:34 PM EDT
Nautical Twilight 6:24 AM EDT 9:03 PM EDT
Astronomical Twilight 5:54 AM EDT 9:33 PM EDT
Moon 9:20 AM EDT (4/13) 11:21 PM EDT (4/13)
Length of Visible Light 13h 40m
Length of Day
12h 51m
Waxing Crescent, 10% of the Moon is Illuminated
Apr 13
Waxing Crescent
Apr 18
First Quarter
Apr 25
Full
May 2
Last Quarter
May 9
New

Hourly Weather History & Observations

Time (EDT) Temp. Dew Point Humidity Pressure Visibility Wind Dir Wind Speed Gust Speed Precip Events Conditions
12:53 AM 57.9 °F 50.0 °F 75% 29.99 in 10.0 mi NNW 4.6 mph - N/A   Clear
1:53 AM 55.9 °F 50.0 °F 80% 29.99 in 10.0 mi NW 4.6 mph - N/A   Clear
2:53 AM 55.0 °F 50.0 °F 83% 30.00 in 10.0 mi NW 3.5 mph - N/A   Clear
3:53 AM 53.1 °F 48.9 °F 86% 29.99 in 10.0 mi NW 4.6 mph - N/A   Clear
4:53 AM 52.0 °F 48.0 °F 86% 29.99 in 10.0 mi NW 3.5 mph - N/A   Clear
5:53 AM 51.1 °F 46.9 °F 86% 30.00 in 10.0 mi NW 4.6 mph - N/A   Clear
6:53 AM 50.0 °F 46.9 °F 89% 30.02 in 10.0 mi Calm Calm - N/A   Clear
7:53 AM 51.1 °F 48.0 °F 89% 30.06 in 10.0 mi Calm Calm - N/A   Clear
8:53 AM 57.9 °F 48.9 °F 72% 30.07 in 10.0 mi North 4.6 mph - N/A   Clear
9:53 AM 66.0 °F 48.0 °F 52% 30.07 in 10.0 mi NNE 5.8 mph - N/A   Clear
10:53 AM 70.0 °F 45.0 °F 41% 30.07 in 10.0 mi North 10.4 mph - N/A   Clear
11:53 AM 73.0 °F 44.1 °F 35% 30.06 in 10.0 mi NE 10.4 mph 16.1 mph N/A   Clear
12:53 PM 73.0 °F 44.1 °F 35% 30.05 in 10.0 mi NNE 10.4 mph - N/A   Clear
1:53 PM 75.9 °F 43.0 °F 31% 30.03 in 10.0 mi NNE 4.6 mph - N/A   Clear
2:53 PM 78.1 °F 42.1 °F 28% 30.01 in 10.0 mi East 5.8 mph - N/A   Clear
3:53 PM 81.0 °F 45.0 °F 28% 29.99 in 10.0 mi North 4.6 mph - N/A   Clear
4:53 PM 81.0 °F 46.9 °F 30% 29.98 in 10.0 mi North 6.9 mph 16.1 mph N/A   Clear
5:53 PM 79.0 °F 51.1 °F 38% 29.98 in 10.0 mi Variable 4.6 mph - N/A   Clear
6:53 PM 75.0 °F 54.0 °F 48% 29.97 in 10.0 mi Calm Calm - N/A   Clear
7:53 PM 71.6 °F 60.8 °F 69% 29.94 in 10.0 mi Calm Calm - N/A   Clear
8:53 PM 66.9 °F 60.1 °F 79% 29.97 in 10.0 mi South 6.9 mph - N/A   Clear
9:53 PM 66.9 °F 57.0 °F 70% 30.00 in 10.0 mi SSE 5.8 mph - N/A   Clear
10:53 PM 66.0 °F 59.0 °F 78% 30.01 in 10.0 mi Calm Calm - N/A   Clear
11:53 PM 64.0 °F 59.0 °F 84% 30.00 in 10.0 mi Calm Calm - N/A   Clear